| time (UTC) | temp F | wind direction | speed MPH | gust MPH | rain 1hr in | rain 24hr in | rain mn in | humidity % | barometer mb |
| 20260509211033 | 65 | 182 | 7.0 | 8.0 | 0.00 | 0.13 | 0.13 | 59 | 1009.8 |
| 20260509210530 | 66 | 194 | 7.0 | 8.0 | 0.00 | 0.13 | 0.13 | 60 | 1009.9 |
| 20260509210026 | 66 | 187 | 4.0 | 6.0 | 0.00 | 0.13 | 0.13 | 60 | 1010.0 |
| 20260509205520 | 66 | 193 | 6.0 | 7.0 | 0.00 | 0.13 | 0.13 | 61 | 1010.0 |
| 20260509205016 | 66 | 72 | 2.0 | 3.0 | 0.00 | 0.13 | 0.13 | 59 | 1010.1 |
| 20260509204512 | 65 | 178 | 6.0 | 7.0 | 0.00 | 0.13 | 0.13 | 61 | 1010.0 |
| 20260509204009 | 65 | 171 | 8.0 | 10.0 | 0.00 | 0.13 | 0.13 | 65 | 1009.9 |
| 20260509203504 | 64 | 197 | 6.0 | 7.0 | 0.00 | 0.13 | 0.13 | 63 | 1010.2 |
| 20260509203003 | 63 | 188 | 6.0 | 8.0 | 0.00 | 0.13 | 0.13 | 65 | 1010.2 |
| 20260509202458 | 63 | 192 | 6.0 | 7.0 | 0.00 | 0.13 | 0.13 | 64 | 1010.0 |
| 20260509201959 | 64 | 217 | 4.0 | 6.0 | 0.00 | 0.13 | 0.13 | 66 | 1010.4 |
| 20260509201454 | 63 | 175 | 4.0 | 6.0 | 0.00 | 0.13 | 0.13 | 68 | 1010.4 |
| 20260509200951 | 63 | 210 | 5.0 | 7.0 | 0.00 | 0.13 | 0.13 | 66 | 1010.7 |
| 20260509200446 | 63 | 178 | 8.0 | 8.0 | 0.00 | 0.13 | 0.13 | 67 | 1010.5 |
| 20260509195943 | 64 | 178 | 8.0 | 9.0 | 0.00 | 0.13 | 0.13 | 67 | 1010.4 |
| 20260509195439 | 63 | 192 | 9.0 | 11.0 | 0.00 | 0.13 | 0.13 | 67 | 1010.5 |
| 20260509194938 | 64 | 183 | 9.0 | 10.0 | 0.00 | 0.13 | 0.13 | 68 | 1010.6 |
| 20260509194434 | 62 | 244 | 5.0 | 8.0 | 0.00 | 0.13 | 0.13 | 69 | 1010.6 |
| 20260509193931 | 64 | 220 | 6.0 | 8.0 | 0.00 | 0.13 | 0.13 | 66 | 1010.8 |
| 20260509193430 | 63 | 199 | 6.0 | 7.0 | 0.00 | 0.13 | 0.13 | 68 | 1010.7 |
| 20260509192927 | 64 | 201 | 9.0 | 11.0 | 0.00 | 0.13 | 0.13 | 66 | 1010.8 |
| 20260509192424 | 62 | 177 | 7.0 | 8.0 | 0.00 | 0.13 | 0.13 | 71 | 1010.8 |
| 20260509191919 | 63 | 198 | 5.0 | 6.0 | 0.00 | 0.13 | 0.13 | 70 | 1010.8 |
| 20260509191414 | 63 | 191 | 7.0 | 9.0 | 0.00 | 0.13 | 0.13 | 70 | 1010.8 |
| 20260509190911 | 62 | 188 | 3.0 | 3.0 | 0.00 | 0.13 | 0.13 | 72 | 1010.8 |
| 20260509190408 | 62 | 204 | 7.0 | 9.0 | 0.00 | 0.13 | 0.13 | 72 | 1011.2 |
| 20260509185906 | 62 | 187 | 5.0 | 6.0 | 0.00 | 0.13 | 0.13 | 72 | 1010.9 |
| 20260509185402 | 63 | 196 | 6.0 | 7.0 | 0.00 | 0.13 | 0.13 | 71 | 1011.1 |
| 20260509184859 | 63 | 185 | 5.0 | 7.0 | 0.00 | 0.13 | 0.13 | 73 | 1011.2 |
| 20260509184356 | 61 | 203 | 5.0 | 7.0 | 0.00 | 0.13 | 0.13 | 76 | 1011.1 |
| 20260509183854 | 60 | 201 | 10.0 | 11.0 | 0.00 | 0.13 | 0.13 | 75 | 1011.0 |
| 20260509183348 | 61 | 167 | 11.0 | 13.0 | 0.00 | 0.13 | 0.13 | 77 | 1011.4 |
| 20260509182844 | 62 | 222 | 6.0 | 8.0 | 0.00 | 0.13 | 0.13 | 74 | 1011.4 |
| 20260509182341 | 61 | 196 | 5.0 | 7.0 | 0.00 | 0.13 | 0.13 | 75 | 1011.3 |
| 20260509181838 | 62 | 168 | 11.0 | 14.0 | 0.00 | 0.13 | 0.13 | 76 | 1011.2 |
| 20260509181336 | 61 | 189 | 4.0 | 4.0 | 0.00 | 0.13 | 0.13 | 79 | 1011.3 |
| 20260509180833 | 60 | 182 | 2.0 | 3.0 | 0.00 | 0.13 | 0.13 | 81 | 1011.4 |
| 20260509180329 | 59 | 182 | 5.0 | 6.0 | 0.00 | 0.13 | 0.13 | 81 | 1011.3 |
| 20260509175826 | 59 | 179 | 8.0 | 9.0 | 0.00 | 0.13 | 0.13 | 81 | 1011.3 |
| 20260509175322 | 59 | 196 | 6.0 | 8.0 | 0.00 | 0.13 | 0.13 | 82 | 1011.1 |
| 20260509174818 | 58 | 197 | 3.0 | 3.0 | 0.00 | 0.13 | 0.13 | 84 | 1011.5 |
| 20260509174313 | 57 | 227 | 2.0 | 2.0 | 0.00 | 0.13 | 0.13 | 85 | 1011.5 |
| 20260509173810 | 58 | 176 | 5.0 | 7.0 | 0.00 | 0.13 | 0.13 | 83 | 1011.2 |
| 20260509173305 | 58 | 221 | 4.0 | 4.0 | 0.00 | 0.13 | 0.13 | 81 | 1011.4 |
| 20260509172801 | 58 | 182 | 4.0 | 4.0 | 0.00 | 0.13 | 0.13 | 83 | 1011.2 |
| 20260509172259 | 59 | 189 | 3.0 | 4.0 | 0.00 | 0.13 | 0.13 | 82 | 1011.3 |
| 20260509171754 | 59 | 188 | 3.0 | 3.0 | 0.00 | 0.13 | 0.13 | 82 | 1011.1 |
| 20260509171250 | 58 | 211 | 5.0 | 6.0 | 0.00 | 0.13 | 0.13 | 84 | 1011.2 |
| 20260509170747 | 58 | 190 | 2.0 | 2.0 | 0.00 | 0.13 | 0.13 | 85 | 1011.3 |
| 20260509170243 | 58 | 183 | 7.0 | 8.0 | 0.00 | 0.13 | 0.13 | 84 | 1011.3 |
| 20260509165742 | 58 | 193 | 7.0 | 9.0 | 0.00 | 0.13 | 0.13 | 84 | 1011.2 |
| 20260509165237 | 58 | 180 | 6.0 | 8.0 | 0.00 | 0.13 | 0.13 | 87 | 1011.1 |
| 20260509164733 | 58 | 188 | 4.0 | 4.0 | 0.00 | 0.13 | 0.13 | 88 | 1011.2 |
| 20260509164229 | 57 | 196 | 4.0 | 4.0 | 0.00 | 0.13 | 0.13 | 89 | 1011.3 |
| 20260509163726 | 57 | 161 | 4.0 | 4.0 | 0.00 | 0.13 | 0.13 | 91 | 1011.2 |
| 20260509163223 | 56 | 169 | 8.0 | 9.0 | 0.00 | 0.13 | 0.13 | 91 | 1011.2 |
| 20260509162721 | 56 | 194 | 6.0 | 7.0 | 0.00 | 0.13 | 0.13 | 92 | 1011.2 |
| 20260509162216 | 55 | 207 | 4.0 | 4.0 | 0.00 | 0.13 | 0.13 | 94 | 1011.4 |
| 20260509161712 | 55 | 204 | 6.0 | 8.0 | 0.00 | 0.13 | 0.13 | 94 | 1011.4 |
| 20260509161208 | 55 | 178 | 9.0 | 10.0 | 0.00 | 0.13 | 0.13 | 94 | 1011.3 |
| 20260509160703 | 54 | 175 | 6.0 | 7.0 | 0.00 | 0.13 | 0.13 | 96 | 1011.3 |
| 20260509160200 | 54 | 187 | 5.0 | 6.0 | 0.00 | 0.13 | 0.13 | 97 | 1011.3 |
| 20260509155655 | 54 | 197 | 3.0 | 3.0 | 0.00 | 0.13 | 0.13 | 97 | 1011.4 |
| 20260509155152 | 54 | 195 | 4.0 | 6.0 | 0.00 | 0.13 | 0.13 | 97 | 1011.5 |
| 20260509154647 | 53 | 186 | 5.0 | 6.0 | 0.00 | 0.13 | 0.13 | 97 | 1011.4 |
| 20260509154145 | 53 | 177 | 3.0 | 3.0 | 0.00 | 0.13 | 0.13 | 97 | 1011.4 |
| 20260509153642 | 53 | 191 | 3.0 | 3.0 | 0.07 | 0.13 | 0.13 | 97 | 1011.4 |
| 20260509153138 | 53 | 189 | 4.0 | 4.0 | 0.07 | 0.13 | 0.13 | 97 | 1011.3 |
| 20260509152634 | 53 | 179 | 5.0 | 6.0 | 0.00 | 0.12 | 0.12 | 97 | 1011.4 |
| 20260509152132 | 53 | 201 | 4.0 | 4.0 | 0.05 | 0.12 | 0.12 | 97 | 1011.1 |
| 20260509151628 | 53 | 178 | 6.0 | 7.0 | 0.05 | 0.12 | 0.12 | 97 | 1011.3 |
| 20260509151126 | 52 | 186 | 4.0 | 4.0 | 0.07 | 0.11 | 0.11 | 97 | 1011.3 |
| 20260509150623 | 52 | 186 | 4.0 | 6.0 | 0.12 | 0.11 | 0.11 | 97 | 1011.4 |
| 20260509150121 | 52 | 194 | 6.0 | 7.0 | 0.05 | 0.10 | 0.10 | 97 | 1011.4 |
| 20260509145617 | 52 | 185 | 3.0 | 3.0 | 0.00 | 0.09 | 0.09 | 97 | 1011.3 |
| 20260509145112 | 52 | 195 | 4.0 | 4.0 | 0.00 | 0.09 | 0.09 | 97 | 1011.4 |
| 20260509144610 | 52 | 181 | 6.0 | 7.0 | 0.00 | 0.09 | 0.09 | 97 | 1011.2 |
| 20260509144107 | 52 | 212 | 3.0 | 3.0 | 0.00 | 0.09 | 0.09 | 97 | 1011.3 |
| 20260509143604 | 52 | 180 | 8.0 | 11.0 | 0.00 | 0.09 | 0.09 | 97 | 1011.3 |
| 20260509143101 | 52 | 182 | 7.0 | 9.0 | 0.07 | 0.09 | 0.09 | 97 | 1011.3 |
| 20260509142556 | 52 | 217 | 4.0 | 6.0 | 0.07 | 0.09 | 0.09 | 97 | 1011.4 |
| 20260509142053 | 52 | 169 | 6.0 | 7.0 | 0.00 | 0.08 | 0.08 | 97 | 1011.4 |
| 20260509141549 | 52 | 177 | 6.0 | 7.0 | 0.00 | 0.08 | 0.08 | 98 | 1011.3 |
| 20260509141046 | 51 | 183 | 9.0 | 9.0 | 0.00 | 0.08 | 0.08 | 98 | 1011.4 |
| 20260509140543 | 51 | 164 | 6.0 | 7.0 | 0.00 | 0.08 | 0.08 | 98 | 1011.5 |
| 20260509140041 | 51 | 191 | 6.0 | 7.0 | 0.00 | 0.08 | 0.08 | 98 | 1011.3 |
| 20260509135537 | 51 | 200 | 4.0 | 4.0 | 0.00 | 0.08 | 0.08 | 98 | 1011.5 |
| 20260509135035 | 51 | 194 | 4.0 | 4.0 | 0.00 | 0.08 | 0.08 | 98 | 1011.7 |
| 20260509134532 | 51 | 198 | 4.0 | 4.0 | 0.00 | 0.08 | 0.08 | 98 | 1011.6 |
| 20260509134030 | 51 | 255 | 4.0 | 6.0 | 0.00 | 0.08 | 0.08 | 98 | 1011.4 |
| 20260509133526 | 51 | 188 | 4.0 | 4.0 | 0.07 | 0.08 | 0.08 | 98 | 1011.4 |
| 20260509133024 | 51 | 187 | 5.0 | 6.0 | 0.07 | 0.08 | 0.08 | 98 | 1011.5 |
| 20260509132522 | 51 | 183 | 5.0 | 6.0 | 0.05 | 0.07 | 0.07 | 98 | 1011.6 |
| 20260509132020 | 51 | 186 | 5.0 | 6.0 | 0.05 | 0.07 | 0.07 | 98 | 1011.6 |
| 20260509131516 | 51 | 188 | 6.0 | 8.0 | 0.12 | 0.07 | 0.07 | 97 | 1011.6 |
| 20260509131013 | 51 | 170 | 7.0 | 7.0 | 0.12 | 0.06 | 0.06 | 97 | 1011.5 |
| 20260509130508 | 51 | 175 | 6.0 | 7.0 | 0.05 | 0.05 | 0.05 | 97 | 1011.7 |
| 20260509130006 | 51 | 200 | 3.0 | 3.0 | 0.00 | 0.04 | 0.04 | 97 | 1011.7 |
| 20260509125502 | 51 | 211 | 3.0 | 3.0 | 0.00 | 0.04 | 0.04 | 97 | 1011.5 |
| 20260509124958 | 51 | 173 | 5.0 | 6.0 | 0.07 | 0.04 | 0.04 | 97 | 1011.7 |
| 20260509124455 | 51 | 202 | 5.0 | 6.0 | 0.07 | 0.04 | 0.04 | 97 | 1011.5 |
| 20260509123952 | 51 | 168 | 5.0 | 6.0 | 0.00 | 0.03 | 0.03 | 97 | 1011.7 |
| 20260509123450 | 51 | 187 | 6.0 | 8.0 | 0.00 | 0.03 | 0.03 | 98 | 1011.6 |
| 20260509122945 | 51 | 203 | 4.0 | 4.0 | 0.00 | 0.03 | 0.03 | 98 | 1011.7 |
| 20260509122443 | 51 | 194 | 7.0 | 8.0 | 0.00 | 0.03 | 0.03 | 98 | 1011.7 |
| 20260509121939 | 51 | 161 | 5.0 | 6.0 | 0.00 | 0.03 | 0.03 | 98 | 1011.8 |
| 20260509121436 | 50 | 186 | 6.0 | 7.0 | 0.00 | 0.03 | 0.03 | 98 | 1011.7 |
| 20260509120934 | 50 | 162 | 6.0 | 7.0 | 0.00 | 0.03 | 0.03 | 99 | 1011.8 |
| 20260509120432 | 50 | 187 | 2.0 | 2.0 | 0.05 | 0.03 | 0.03 | 99 | 1011.8 |
| 20260509115930 | 50 | 198 | 3.0 | 3.0 | 0.05 | 0.03 | 0.03 | 99 | 1012.1 |
| 20260509115427 | 50 | 150 | 2.0 | 2.0 | 0.00 | 0.02 | 0.02 | 99 | 1011.8 |
| 20260509114924 | 49 | 180 | 2.0 | 2.0 | 0.07 | 0.02 | 0.02 | 99 | 1012.0 |
| 20260509114423 | 49 | 181 | 2.0 | 2.0 | 0.07 | 0.02 | 0.02 | 99 | 1011.7 |
| 20260509113922 | 49 | 199 | 1.0 | 2.0 | 0.00 | 0.01 | 0.01 | 99 | 1011.8 |
| 20260509113419 | 49 | 182 | 2.0 | 2.0 | 0.00 | 0.01 | 0.01 | 99 | 1011.7 |
| 20260509112915 | 49 | 171 | 0.0 | 0.0 | 0.00 | 0.01 | 0.01 | 99 | 1011.7 |
| 20260509112413 | 49 | 312 | 0.0 | 0.0 | 0.00 | 0.01 | 0.01 | 99 | 1011.7 |
| 20260509111910 | 48 | 323 | 0.0 | 0.0 | 0.00 | 0.01 | 0.01 | 99 | 1011.7 |
| 20260509111406 | 48 | 307 | 0.0 | 0.0 | 0.00 | 0.01 | 0.01 | 99 | 1011.7 |
| 20260509110904 | 48 | 327 | 0.0 | 0.0 | 0.00 | 0.01 | 0.01 | 99 | 1011.6 |
| 20260509110400 | 48 | 328 | 0.0 | 0.0 | 0.00 | 0.01 | 0.01 | 99 | 1011.7 |
| 20260509105858 | 48 | 341 | 0.0 | 0.0 | 0.00 | 0.01 | 0.01 | 99 | 1011.4 |
| 20260509105356 | 48 | 339 | 0.0 | 0.0 | 0.00 | 0.01 | 0.01 | 99 | 1011.6 |
| 20260509104853 | 48 | 337 | 0.0 | 0.0 | 0.00 | 0.01 | 0.01 | 99 | 1011.8 |
| 20260509104349 | 48 | 334 | 0.0 | 0.0 | 0.00 | 0.01 | 0.01 | 99 | 1011.5 |
| 20260509103847 | 48 | 310 | 0.0 | 0.0 | 0.00 | 0.01 | 0.01 | 99 | 1011.5 |
| 20260509103344 | 48 | 333 | 0.0 | 0.0 | 0.00 | 0.01 | 0.01 | 99 | 1011.4 |
| 20260509102843 | 48 | 330 | 0.0 | 0.0 | 0.00 | 0.01 | 0.01 | 99 | 1011.6 |
| 20260509102340 | 48 | 326 | 0.0 | 0.0 | 0.00 | 0.01 | 0.01 | 99 | 1011.5 |
| 20260509101835 | 48 | 334 | 0.0 | 0.0 | 0.00 | 0.01 | 0.01 | 99 | 1011.5 |
| 20260509101332 | 48 | 342 | 0.0 | 0.0 | 0.00 | 0.01 | 0.01 | 99 | 1011.5 |
| 20260509100830 | 48 | 351 | 0.0 | 0.0 | 0.05 | 0.01 | 0.01 | 99 | 1011.8 |
| 20260509100327 | 48 | 351 | 0.0 | 0.0 | 0.05 | 0.01 | 0.01 | 99 | 1011.7 |
| 20260509095823 | 48 | 333 | 0.0 | 0.0 | 0.00 | 0.00 | 0.00 | 99 | 1011.5 |
| 20260509095321 | 48 | 339 | 0.0 | 0.0 | 0.00 | 0.00 | 0.00 | 99 | 1011.7 |
| 20260509094818 | 48 | 353 | 0.0 | 0.0 | 0.00 | 0.00 | 0.00 | 99 | 1011.6 |
| 20260509094314 | 48 | 348 | 0.0 | 0.0 | 0.00 | 0.00 | 0.00 | 99 | 1012.0 |
| 20260509093812 | 48 | 357 | 0.0 | 0.0 | 0.00 | 0.00 | 0.00 | 99 | 1012.0 |
| 20260509093309 | 48 | 357 | 0.0 | 0.0 | 0.00 | 0.00 | 0.00 | 99 | 1012.1 |
| 20260509092808 | 48 | 357 | 0.0 | 0.0 | 0.00 | 0.00 | 0.00 | 99 | 1012.1 |
| 20260509092306 | 48 | 1 | 0.0 | 0.0 | 0.00 | 0.00 | 0.00 | 99 | 1012.0 |
| 20260509091803 | 48 | 357 | 0.0 | 0.0 | 0.00 | 0.00 | 0.00 | 99 | 1011.8 |
| 20260509091259 | 48 | 356 | 0.0 | 0.0 | 0.00 | 0.00 | 0.00 | 99 | 1012.2 |
| 20260509090757 | 48 | 356 | 0.0 | 0.0 | 0.00 | 0.00 | 0.00 | 99 | 1012.2 |
| 20260509090254 | 47 | 356 | 0.0 | 0.0 | 0.00 | 0.00 | 0.00 | 99 | 1012.2 |
| 20260509085751 | 47 | 356 | 0.0 | 0.0 | 0.00 | 0.00 | 0.00 | 99 | 1012.1 |
| 20260509085248 | 47 | 356 | 0.0 | 0.0 | 0.00 | 0.00 | 0.00 | 99 | 1012.3 |
| 20260509084745 | 48 | 356 | 0.0 | 0.0 | 0.00 | 0.00 | 0.00 | 99 | 1012.2 |
| 20260509084242 | 48 | 356 | 0.0 | 0.0 | 0.00 | 0.00 | 0.00 | 99 | 1012.1 |
| 20260509083740 | 48 | 356 | 0.0 | 0.0 | 0.00 | 0.00 | 0.00 | 99 | 1012.3 |
| 20260509083236 | 48 | 358 | 0.0 | 0.0 | 0.00 | 0.00 | 0.00 | 99 | 1012.1 |
| 20260509082733 | 48 | 0 | 0.0 | 0.0 | 0.00 | 0.00 | 0.00 | 99 | 1012.2 |
| 20260509082229 | 48 | 6 | 0.0 | 0.0 | 0.00 | 0.00 | 0.00 | 99 | 1012.0 |
| 20260509081726 | 48 | 6 | 0.0 | 0.0 | 0.00 | 0.00 | 0.00 | 99 | 1012.1 |
| 20260509081224 | 48 | 5 | 0.0 | 0.0 | 0.00 | 0.00 | 0.00 | 99 | 1012.1 |
| 20260509080722 | 48 | 13 | 0.0 | 0.0 | 0.00 | 0.00 | 0.00 | 99 | 1012.1 |
| 20260509080219 | 48 | 13 | 0.0 | 0.0 | 0.00 | 0.00 | 0.00 | 99 | 1012.1 |
| 20260509075717 | 48 | 16 | 0.0 | 0.0 | 0.00 | 0.00 | 0.00 | 99 | 1012.1 |
| 20260509075215 | 48 | 352 | 0.0 | 0.0 | 0.00 | 0.00 | 0.00 | 99 | 1012.3 |
| 20260509074711 | 48 | 1 | 0.0 | 0.0 | 0.00 | 0.00 | 0.00 | 99 | 1012.0 |
| 20260509074209 | 48 | 9 | 0.0 | 0.0 | 0.00 | 0.00 | 0.00 | 99 | 1011.8 |
| 20260509073705 | 48 | 10 | 0.0 | 0.0 | 0.00 | 0.00 | 0.00 | 99 | 1012.1 |
| 20260509073201 | 48 | 353 | 0.0 | 0.0 | 0.00 | 0.00 | 0.00 | 99 | 1012.3 |
| 20260509072658 | 48 | 24 | 0.0 | 0.0 | 0.00 | 0.00 | 0.00 | 99 | 1012.3 |
| 20260509072155 | 48 | 3 | 0.0 | 0.0 | 0.00 | 0.00 | 0.00 | 99 | 1012.3 |
| 20260509071651 | 48 | 1 | 0.0 | 0.0 | 0.00 | 0.00 | 0.00 | 99 | 1012.1 |
| 20260509071149 | 48 | 1 | 0.0 | 0.0 | 0.00 | 0.00 | 0.00 | 99 | 1012.3 |
| 20260509070646 | 48 | 356 | 0.0 | 0.0 | 0.00 | 0.00 | 0.00 | 99 | 1012.3 |
| 20260509070142 | 48 | 346 | 0.0 | 0.0 | 0.00 | 0.00 | 0.00 | 98 | 1012.3 |
| 20260509065638 | 48 | 337 | 0.0 | 0.0 | 0.00 | 0.00 | 0.00 | 98 | 1012.3 |
| 20260509065134 | 48 | 6 | 0.0 | 0.0 | 0.00 | 0.00 | 0.00 | 98 | 1012.1 |
| 20260509064631 | 48 | 356 | 0.0 | 0.0 | 0.00 | 0.00 | 0.00 | 98 | 1012.2 |
| 20260509064129 | 48 | 359 | 0.0 | 0.0 | 0.00 | 0.00 | 0.00 | 98 | 1012.5 |
| 20260509063626 | 48 | 349 | 0.0 | 0.0 | 0.00 | 0.00 | 0.00 | 98 | 1012.6 |
| 20260509063122 | 48 | 358 | 0.0 | 0.0 | 0.00 | 0.00 | 0.00 | 98 | 1012.6 |
| 20260509062620 | 48 | 10 | 0.0 | 0.0 | 0.00 | 0.00 | 0.00 | 98 | 1012.7 |
| 20260509062117 | 48 | 350 | 0.0 | 0.0 | 0.00 | 0.00 | 0.00 | 98 | 1012.9 |
| 20260509061614 | 48 | 17 | 0.0 | 0.0 | 0.00 | 0.00 | 0.00 | 98 | 1012.8 |
| 20260509061111 | 48 | 353 | 0.0 | 0.0 | 0.00 | 0.00 | 0.00 | 98 | 1013.0 |
| 20260509060609 | 48 | 14 | 0.0 | 0.0 | 0.00 | 0.00 | 0.00 | 98 | 1013.0 |
| 20260509060104 | 48 | 9 | 0.0 | 0.0 | 0.00 | 0.00 | 0.00 | 98 | 1013.0 |
| 20260509055600 | 48 | 6 | 0.0 | 0.0 | 0.00 | 0.00 | 0.00 | 98 | 1013.0 |
| 20260509055056 | 48 | 23 | 0.0 | 0.0 | 0.00 | 0.00 | 0.00 | 98 | 1012.9 |
| 20260509054553 | 48 | 352 | 0.0 | 0.0 | 0.00 | 0.00 | 0.00 | 98 | 1013.1 |
| 20260509054051 | 48 | 3 | 0.0 | 0.0 | 0.00 | 0.00 | 0.00 | 98 | 1013.1 |
| 20260509053549 | 48 | 353 | 0.0 | 0.0 | 0.00 | 0.00 | 0.00 | 98 | 1013.2 |
| 20260509053046 | 48 | 355 | 0.0 | 0.0 | 0.00 | 0.00 | 0.00 | 98 | 1013.3 |
| 20260509052543 | 48 | 357 | 0.0 | 0.0 | 0.00 | 0.00 | 0.00 | 98 | 1013.4 |
| 20260509052041 | 48 | 6 | 0.0 | 0.0 | 0.00 | 0.00 | 0.00 | 98 | 1013.5 |
| 20260509051539 | 48 | 349 | 0.0 | 0.0 | 0.00 | 0.00 | 0.00 | 98 | 1013.4 |
| 20260509051036 | 48 | 353 | 0.0 | 0.0 | 0.00 | 0.00 | 0.00 | 98 | 1013.3 |
| 20260509050533 | 48 | 10 | 0.0 | 0.0 | 0.00 | 0.00 | 0.00 | 98 | 1013.6 |
| 20260509050029 | 48 | 17 | 0.0 | 0.0 | 0.00 | 0.00 | 0.00 | 98 | 1013.4 |
| 20260509045526 | 48 | 0 | 0.0 | 0.0 | 0.00 | 0.00 | 0.00 | 98 | 1013.5 |
| 20260509045023 | 48 | 3 | 0.0 | 0.0 | 0.00 | 0.00 | 0.00 | 98 | 1013.7 |
| 20260509044521 | 48 | 10 | 0.0 | 0.0 | 0.00 | 0.00 | 0.00 | 98 | 1013.7 |
| 20260509044018 | 48 | 12 | 0.0 | 0.0 | 0.00 | 0.00 | 0.00 | 98 | 1013.9 |
| 20260509043515 | 48 | 357 | 0.0 | 0.0 | 0.00 | 0.00 | 0.00 | 98 | 1013.7 |
| 20260509043010 | 49 | 0 | 0.0 | 0.0 | 0.00 | 0.00 | 0.00 | 98 | 1014.0 |
| 20260509042506 | 49 | 341 | 0.0 | 0.0 | 0.00 | 0.00 | 0.00 | 98 | 1014.1 |
| 20260509042003 | 49 | 5 | 0.0 | 0.0 | 0.00 | 0.00 | 0.00 | 98 | 1014.1 |
| 20260509041459 | 49 | 353 | 0.0 | 0.0 | 0.00 | 0.00 | 0.00 | 98 | 1014.2 |
| 20260509040957 | 49 | 356 | 0.0 | 0.0 | 0.00 | 0.00 | 0.00 | 98 | 1014.2 |
| 20260509040456 | 49 | 356 | 0.0 | 0.0 | 0.00 | 0.00 | 0.00 | 98 | 1014.2 |
| 20260509035951 | 49 | 356 | 0.0 | 0.0 | 0.00 | 0.11 | 0.11 | 98 | 1014.3 |
| 20260509035448 | 49 | 16 | 0.0 | 0.0 | 0.00 | 0.11 | 0.11 | 98 | 1014.3 |
| 20260509034945 | 49 | 8 | 0.0 | 0.0 | 0.00 | 0.11 | 0.11 | 98 | 1014.5 |
| 20260509034443 | 49 | 20 | 0.0 | 0.0 | 0.07 | 0.11 | 0.11 | 98 | 1014.6 |
| 20260509033940 | 49 | 16 | 0.0 | 0.0 | 0.07 | 0.11 | 0.11 | 98 | 1014.5 |
| 20260509033437 | 49 | 5 | 0.0 | 0.0 | 0.00 | 0.10 | 0.10 | 98 | 1014.7 |
| 20260509032933 | 49 | 5 | 0.0 | 0.0 | 0.00 | 0.10 | 0.10 | 98 | 1014.9 |
| 20260509032431 | 49 | 4 | 0.0 | 0.0 | 0.00 | 0.10 | 0.10 | 98 | 1015.0 |
| 20260509031929 | 49 | 4 | 0.0 | 0.0 | 0.00 | 0.10 | 0.10 | 98 | 1015.0 |
| 20260509031426 | 49 | 4 | 0.0 | 0.0 | 0.00 | 0.10 | 0.10 | 98 | 1014.9 |
| 20260509030923 | 49 | 14 | 0.0 | 0.0 | 0.00 | 0.10 | 0.10 | 98 | 1015.0 |
| 20260509030421 | 49 | 0 | 0.0 | 0.0 | 0.05 | 0.10 | 0.10 | 98 | 1015.2 |
| 20260509025918 | 49 | 0 | 0.0 | 0.0 | 0.05 | 0.10 | 0.10 | 98 | 1015.4 |
| 20260509025414 | 49 | 1 | 0.0 | 0.0 | 0.07 | 0.09 | 0.09 | 98 | 1015.3 |
| 20260509024909 | 49 | 345 | 0.0 | 0.0 | 0.07 | 0.09 | 0.09 | 98 | 1015.4 |
| 20260509024405 | 49 | 342 | 0.0 | 0.0 | 0.00 | 0.08 | 0.08 | 98 | 1015.5 |
| 20260509023902 | 49 | 350 | 0.0 | 0.0 | 0.07 | 0.08 | 0.08 | 98 | 1015.4 |
| 20260509023400 | 49 | 8 | 0.0 | 0.0 | 0.07 | 0.08 | 0.08 | 98 | 1015.3 |
| 20260509022856 | 49 | 34 | 0.0 | 0.0 | 0.00 | 0.07 | 0.07 | 98 | 1015.2 |
| 20260509022353 | 49 | 296 | 2.0 | 2.0 | 0.00 | 0.07 | 0.07 | 97 | 1015.2 |
| 20260509021850 | 49 | 19 | 0.0 | 0.0 | 0.05 | 0.07 | 0.07 | 97 | 1015.0 |
| 20260509021347 | 49 | 312 | 0.0 | 0.0 | 0.05 | 0.07 | 0.07 | 97 | 1015.0 |
| 20260509020845 | 49 | 350 | 0.0 | 0.0 | 0.00 | 0.06 | 0.06 | 97 | 1014.9 |
| 20260509020343 | 49 | 353 | 0.0 | 0.0 | 0.00 | 0.06 | 0.06 | 97 | 1014.9 |
| 20260509015840 | 49 | 10 | 0.0 | 0.0 | 0.00 | 0.06 | 0.06 | 97 | 1014.7 |
| 20260509015338 | 49 | 7 | 0.0 | 0.0 | 0.00 | 0.06 | 0.06 | 97 | 1014.4 |
| 20260509014835 | 49 | 9 | 0.0 | 0.0 | 0.00 | 0.06 | 0.06 | 97 | 1014.5 |
| 20260509014331 | 49 | 0 | 0.0 | 0.0 | 0.00 | 0.06 | 0.06 | 97 | 1014.6 |
| 20260509013828 | 49 | 17 | 0.0 | 0.0 | 0.07 | 0.06 | 0.06 | 97 | 1014.6 |
| 20260509013325 | 49 | 17 | 0.0 | 0.0 | 0.07 | 0.06 | 0.06 | 97 | 1014.6 |
| 20260509012821 | 49 | 171 | 2.0 | 2.0 | 0.00 | 0.05 | 0.05 | 97 | 1014.4 |
| 20260509012317 | 49 | 357 | 0.0 | 0.0 | 0.00 | 0.05 | 0.05 | 97 | 1014.3 |
| 20260509011815 | 49 | 354 | 0.0 | 0.0 | 0.00 | 0.05 | 0.05 | 97 | 1014.2 |
| 20260509011312 | 50 | 24 | 0.0 | 0.0 | 0.00 | 0.05 | 0.05 | 97 | 1014.1 |
| 20260509010810 | 49 | 4 | 0.0 | 0.0 | 0.00 | 0.05 | 0.05 | 97 | 1014.0 |
| 20260509010306 | 49 | 342 | 0.0 | 0.0 | 0.00 | 0.05 | 0.05 | 97 | 1014.0 |
| 20260509005804 | 49 | 28 | 1.0 | 1.0 | 0.00 | 0.05 | 0.05 | 96 | 1014.0 |
| 20260509005306 | 49 | 9 | 0.0 | 0.0 | 0.00 | 0.05 | 0.05 | 96 | 1013.6 |
| 20260509004801 | 49 | 6 | 0.0 | 0.0 | 0.00 | 0.05 | 0.05 | 96 | 1013.9 |
| 20260509004258 | 49 | 6 | 0.0 | 0.0 | 0.00 | 0.05 | 0.05 | 96 | 1014.1 |
| 20260509003757 | 49 | 1 | 0.0 | 0.0 | 0.00 | 0.05 | 0.05 | 96 | 1013.9 |
| 20260509003254 | 50 | 10 | 0.0 | 0.0 | 0.00 | 0.05 | 0.05 | 96 | 1013.9 |
| 20260509002751 | 50 | 10 | 0.0 | 0.0 | 0.00 | 0.05 | 0.05 | 96 | 1013.8 |
| 20260509002249 | 50 | 10 | 0.0 | 0.0 | 0.00 | 0.05 | 0.05 | 95 | 1013.9 |
| 20260509001746 | 50 | 0 | 0.0 | 0.0 | 0.00 | 0.05 | 0.05 | 95 | 1013.8 |
| 20260509001241 | 50 | 353 | 0.0 | 0.0 | 0.00 | 0.05 | 0.05 | 95 | 1013.7 |
| 20260509000740 | 50 | 2 | 0.0 | 0.0 | 0.00 | 0.05 | 0.05 | 95 | 1013.6 |
| 20260509000237 | 50 | 315 | 0.0 | 0.0 | 0.00 | 0.05 | 0.05 | 94 | 1013.6 |
| 20260508235734 | 50 | 339 | 0.0 | 0.0 | 0.00 | 0.05 | 0.05 | 93 | 1013.6 |
| 20260508235230 | 50 | 345 | 0.0 | 0.0 | 0.00 | 0.05 | 0.05 | 93 | 1013.6 |
| 20260508234728 | 50 | 346 | 0.0 | 0.0 | 0.00 | 0.05 | 0.05 | 92 | 1013.5 |
| 20260508234224 | 50 | 347 | 0.0 | 0.0 | 0.00 | 0.05 | 0.05 | 92 | 1013.4 |
| 20260508233723 | 50 | 349 | 0.0 | 0.0 | 0.00 | 0.05 | 0.05 | 91 | 1013.4 |
| 20260508233221 | 51 | 349 | 0.0 | 0.0 | 0.00 | 0.05 | 0.05 | 90 | 1013.5 |
| 20260508232718 | 51 | 357 | 0.0 | 0.0 | 0.00 | 0.05 | 0.05 | 90 | 1013.6 |
| 20260508232214 | 51 | 352 | 0.0 | 0.0 | 0.00 | 0.05 | 0.05 | 90 | 1013.8 |
| 20260508231713 | 51 | 1 | 0.0 | 0.0 | 0.00 | 0.05 | 0.05 | 89 | 1013.9 |
| 20260508231209 | 51 | 3 | 0.0 | 0.0 | 0.00 | 0.05 | 0.05 | 89 | 1013.9 |
| 20260508230706 | 51 | 9 | 0.0 | 0.0 | 0.00 | 0.05 | 0.05 | 89 | 1013.8 |
| 20260508230202 | 51 | 10 | 0.0 | 0.0 | 0.00 | 0.05 | 0.05 | 89 | 1014.0 |
| 20260508225700 | 51 | 8 | 0.0 | 0.0 | 0.00 | 0.05 | 0.05 | 88 | 1014.0 |
| 20260508225156 | 51 | 343 | 0.0 | 0.0 | 0.00 | 0.05 | 0.05 | 88 | 1013.9 |
| 20260508224654 | 51 | 354 | 0.0 | 0.0 | 0.00 | 0.05 | 0.05 | 88 | 1014.0 |
| 20260508224151 | 51 | 44 | 1.0 | 1.0 | 0.00 | 0.05 | 0.05 | 87 | 1013.9 |
| 20260508223649 | 51 | 12 | 0.0 | 0.0 | 0.00 | 0.05 | 0.05 | 86 | 1014.0 |
| 20260508223146 | 51 | 327 | 0.0 | 1.0 | 0.00 | 0.05 | 0.05 | 86 | 1014.2 |
| 20260508222643 | 51 | 38 | 0.0 | 0.0 | 0.00 | 0.05 | 0.05 | 86 | 1014.0 |
| 20260508222141 | 51 | 5 | 0.0 | 0.0 | 0.00 | 0.05 | 0.05 | 85 | 1014.1 |
| 20260508221637 | 52 | 85 | 1.0 | 1.0 | 0.00 | 0.05 | 0.05 | 85 | 1014.0 |
| 20260508221132 | 51 | 339 | 0.0 | 0.0 | 0.00 | 0.05 | 0.05 | 87 | 1013.9 |
| 20260508220629 | 51 | 32 | 0.0 | 0.0 | 0.00 | 0.05 | 0.05 | 87 | 1014.1 |
| 20260508220126 | 51 | 11 | 0.0 | 0.0 | 0.05 | 0.05 | 0.05 | 90 | 1014.3 |
| 20260508215622 | 51 | 5 | 0.0 | 0.0 | 0.05 | 0.05 | 0.05 | 91 | 1014.3 |
| 20260508215119 | 51 | 6 | 0.0 | 0.0 | 0.07 | 0.04 | 0.04 | 91 | 1014.3 |
| 20260508214616 | 51 | 17 | 0.0 | 0.0 | 0.07 | 0.04 | 0.04 | 91 | 1014.4 |
| 20260508214113 | 51 | 16 | 0.0 | 0.0 | 0.07 | 0.04 | 0.04 | 91 | 1014.5 |
| 20260508213610 | 51 | 1 | 0.0 | 0.0 | 0.00 | 0.03 | 0.03 | 90 | 1014.4 |
| 20260508213106 | 51 | 343 | 0.0 | 0.0 | 0.05 | 0.03 | 0.03 | 88 | 1014.2 |
| 20260508212603 | 51 | 355 | 0.0 | 0.0 | 0.05 | 0.03 | 0.03 | 87 | 1014.3 |
| 20260508212059 | 52 | 343 | 0.0 | 0.0 | 0.00 | 0.02 | 0.02 | 86 | 1014.1 |
| 20260508211554 | 52 | 338 | 0.0 | 0.0 | 0.00 | 0.02 | 0.02 | 84 | 1014.2 |